When you browse on this site, cookies collect data to enhance your experience and personalize the content and advertising you see.
Visit our Privacy Policy to learn more. By continuing to use the site, you agree to this use of cookies and data.
  • In Romania
  • List of Countries
  • For 7 days
  • Water Temperature
  • Weather Map
  • Weather Widgets
  • user-avatar
    Login

    Hourly Weather Horog

    Today, 5 April, Sunday

    Time Temperature Precipitation Wind Pressure Humidity
    00:00 -12°C° 0 mm 2 mps 483 mmHg 51%
    01:00 -12°C° 0 mm 2 mps 483 mmHg 52%
    02:00 -11°C° 0 mm 1 mps 483 mmHg 53%
    03:00 -11°C° 0 mm 1 mps 483 mmHg 53%
    04:00 -11°C° 0 mm 1 mps 483 mmHg 54%
    05:00 -14°C° 0 mm 2 mps 482 mmHg 53%
    06:00 -11°C° 0 mm 1 mps 483 mmHg 56%
    07:00 -10°C° 0 mm 1 mps 484 mmHg 58%
    08:00 -9°C° 0 mm 1 mps 485 mmHg 61%
    09:00 -7°C° 0 mm 1 mps 485 mmHg 60%
    10:00 -6°C° 0 mm 1 mps 486 mmHg 59%
    11:00 -4°C° 0 mm 1 mps 486 mmHg 57%
    12:00 -3°C° 0 mm 1 mps 486 mmHg 60%
    13:00 -3°C° 0 mm 1 mps 486 mmHg 64%
    14:00 -2°C° 0 mm 1 mps 486 mmHg 67%
    15:00 -3°C° 0 mm 0 mps 486 mmHg 71%
    16:00 -3°C° 0 mm 0 mps 486 mmHg 75%
    17:00 -3°C° 0 mm 0 mps 486 mmHg 79%
    18:00 -4°C° 0 mm 0 mps 486 mmHg 77%
    19:00 -6°C° 0 mm 1 mps 485 mmHg 74%
    20:00 -7°C° 0 mm 1 mps 484 mmHg 72%
    21:00 -7°C° 0 mm 1 mps 485 mmHg 71%
    22:00 -7°C° 0 mm 1 mps 485 mmHg 70%
    23:00 -7°C° 0 mm 1 mps 485 mmHg 68%

    Tomorrow, 6 April, Monday

    Time Temperature Precipitation Wind Pressure Humidity
    00:00 -8°C° 0 mm 1 mps 484 mmHg 69%
    01:00 -8°C° 0 mm 1 mps 484 mmHg 70%
    02:00 -9°C° 0 mm 1 mps 484 mmHg 70%
    03:00 -9°C° 0 mm 1 mps 484 mmHg 70%
    04:00 -9°C° 0 mm 1 mps 484 mmHg 70%
    05:00 -10°C° 0 mm 1 mps 484 mmHg 69%
    06:00 -9°C° 0 mm 1 mps 484 mmHg 69%
    07:00 -8°C° 0 mm 1 mps 484 mmHg 70%
    08:00 -7°C° 0 mm 1 mps 485 mmHg 70%
    09:00 -6°C° 0 mm 1 mps 485 mmHg 69%
    10:00 -4°C° 0 mm 1 mps 485 mmHg 68%
    11:00 -3°C° 0 mm 1 mps 486 mmHg 67%
    12:00 -2°C° 0 mm 1 mps 486 mmHg 68%
    13:00 -2°C° 0 mm 1 mps 486 mmHg 69%
    14:00 -2°C° 0 mm 0 mps 486 mmHg 69%
    15:00 -2°C° 0 mm 0 mps 485 mmHg 72%
    16:00 -3°C° 0 mm 0 mps 485 mmHg 75%
    17:00 -3°C° 0 mm 0 mps 485 mmHg 78%
    18:00 -3°C° 0 mm 1 mps 485 mmHg 75%
    19:00 -4°C° 0 mm 1 mps 484 mmHg 73%
    20:00 -6°C° 0 mm 1 mps 484 mmHg 70%
    21:00 -6°C° 0 mm 1 mps 484 mmHg 68%
    22:00 -7°C° 0 mm 1 mps 484 mmHg 66%
    23:00 -7°C° 0 mm 1 mps 484 mmHg 64%

    Day after tomorrow, 7 April, Tuesday

    Time Temperature Precipitation Wind Pressure Humidity
    00:00 -8°C° 0 mm 1 mps 483 mmHg 65%
    01:00 -9°C° 0 mm 2 mps 483 mmHg 66%
    02:00 -10°C° 0 mm 2 mps 483 mmHg 67%
    03:00 -10°C° 0 mm 2 mps 483 mmHg 67%
    04:00 -9°C° 0 mm 1 mps 482 mmHg 68%
    05:00 -10°C° 0 mm 1 mps 482 mmHg 69%
    06:00 -9°C° 0 mm 1 mps 483 mmHg 69%
    07:00 -8°C° 0 mm 1 mps 484 mmHg 69%
    08:00 -7°C° 0 mm 1 mps 484 mmHg 69%
    09:00 -6°C° 0 mm 1 mps 485 mmHg 66%
    10:00 -4°C° 0 mm 1 mps 485 mmHg 63%
    11:00 -3°C° 0 mm 1 mps 485 mmHg 61%
    12:00 -3°C° 0 mm 1 mps 486 mmHg 62%
    13:00 -2°C° 0 mm 1 mps 486 mmHg 64%
    14:00 -1°C° 0 mm 1 mps 486 mmHg 66%
    15:00 -1°C° 0 mm 1 mps 486 mmHg 68%
    16:00 -1°C° 0 mm 1 mps 486 mmHg 69%
    17:00 -1°C° 0 mm 1 mps 486 mmHg 71%
    18:00 -3°C° 0 mm 1 mps 485 mmHg 73%
    19:00 -4°C° 0 mm 1 mps 485 mmHg 76%
    20:00 -7°C° 0 mm 1 mps 484 mmHg 78%
    21:00 -7°C° 0 mm 1 mps 484 mmHg 77%
    22:00 -7°C° 0 mm 1 mps 484 mmHg 76%
    23:00 -7°C° 0 mm 1 mps 484 mmHg 75%

    8 April, Wednesday

    Time Temperature Precipitation Wind Pressure Humidity
    00:00 -8°C° 0 mm 1 mps 483 mmHg 75%
    01:00 -8°C° 0 mm 1 mps 483 mmHg 75%
    02:00 -8°C° 0 mm 1 mps 483 mmHg 75%
    03:00 -9°C° 0 mm 1 mps 483 mmHg 75%
    04:00 -9°C° 0 mm 1 mps 482 mmHg 75%
    05:00 -9°C° 0 mm 1 mps 482 mmHg 75%
    06:00 -9°C° 0 mm 1 mps 483 mmHg 73%
    07:00 -8°C° 0 mm 1 mps 483 mmHg 72%
    08:00 -7°C° 0 mm 1 mps 484 mmHg 70%
    09:00 -6°C° 0 mm 1 mps 484 mmHg 67%
    10:00 -4°C° 0 mm 1 mps 484 mmHg 65%
    11:00 -3°C° 0 mm 1 mps 484 mmHg 62%
    12:00 -2°C° 0 mm 1 mps 484 mmHg 63%
    13:00 -1°C° 0 mm 1 mps 484 mmHg 63%
    14:00 -1°C° 0 mm 1 mps 485 mmHg 63%
    15:00 -1°C° 0 mm 1 mps 484 mmHg 65%
    16:00 0°C° 0 mm 1 mps 484 mmHg 67%
    17:00 0°C° 0 mm 1 mps 484 mmHg 70%
    18:00 -1°C° 0.1 mm 1 mps 484 mmHg 75%
    19:00 -2°C° 0.1 mm 1 mps 484 mmHg 81%
    20:00 -3°C° 0.1 mm 1 mps 484 mmHg 87%
    21:00 -3°C° 0.9 mm 1 mps 484 mmHg 90%
    22:00 -3°C° 0.9 mm 1 mps 484 mmHg 92%
    23:00 -6°C° 0.9 mm 2 mps 484 mmHg 95%

    9 April, Thursday

    Time Temperature Precipitation Wind Pressure Humidity
    00:00 -6°C° 1.1 mm 2 mps 484 mmHg 95%
    01:00 -6°C° 1.1 mm 2 mps 483 mmHg 94%
    02:00 -7°C° 1.1 mm 2 mps 483 mmHg 93%
    03:00 -7°C° 0.2 mm 2 mps 483 mmHg 94%
    04:00 -8°C° 0.2 mm 2 mps 482 mmHg 94%
    05:00 -8°C° 0.2 mm 2 mps 482 mmHg 94%
    06:00 -8°C° 0.6 mm 2 mps 482 mmHg 94%
    07:00 -9°C° 0.6 mm 3 mps 483 mmHg 93%
    08:00 -9°C° 0.6 mm 3 mps 483 mmHg 93%
    09:00 -9°C° 0.4 mm 3 mps 483 mmHg 91%
    10:00 -9°C° 0.4 mm 3 mps 483 mmHg 89%
    11:00 -8°C° 0.4 mm 3 mps 483 mmHg 87%
    12:00 -8°C° 0.1 mm 3 mps 483 mmHg 84%
    13:00 -7°C° 0.1 mm 3 mps 484 mmHg 81%
    14:00 -7°C° 0.1 mm 3 mps 484 mmHg 78%
    15:00 -6°C° 0 mm 2 mps 484 mmHg 76%
    16:00 -6°C° 0 mm 2 mps 484 mmHg 74%
    17:00 -4°C° 0 mm 1 mps 484 mmHg 72%
    18:00 -7°C° 0 mm 1 mps 484 mmHg 72%
    19:00 -9°C° 0 mm 1 mps 483 mmHg 72%
    20:00 -10°C° 0 mm 1 mps 483 mmHg 72%
    21:00 -11°C° 0 mm 1 mps 483 mmHg 67%
    22:00 -13°C° 0 mm 2 mps 483 mmHg 63%
    23:00 -13°C° 0 mm 2 mps 483 mmHg 58%

    10 April, Friday

    Time Temperature Precipitation Wind Pressure Humidity
    00:00 -14°C° 0 mm 2 mps 483 mmHg 58%
    01:00 -14°C° 0 mm 2 mps 483 mmHg 57%
    02:00 -15°C° 0 mm 2 mps 482 mmHg 57%
    03:00 -15°C° 0 mm 2 mps 482 mmHg 54%
    04:00 -15°C° 0 mm 2 mps 482 mmHg 52%
    05:00 -15°C° 0 mm 2 mps 482 mmHg 49%
    06:00 -14°C° 0 mm 2 mps 482 mmHg 49%
    07:00 -13°C° 0 mm 2 mps 483 mmHg 49%
    08:00 -12°C° 0 mm 2 mps 483 mmHg 48%
    09:00 -10°C° 0 mm 2 mps 484 mmHg 47%
    10:00 -8°C° 0 mm 2 mps 484 mmHg 46%
    11:00 -6°C° 0 mm 1 mps 485 mmHg 45%
    12:00 -4°C° 0 mm 1 mps 486 mmHg 46%
    13:00 -3°C° 0 mm 1 mps 486 mmHg 48%
    14:00 -2°C° 0 mm 1 mps 487 mmHg 50%
    15:00 -2°C° 0 mm 1 mps 487 mmHg 53%
    16:00 -2°C° 0 mm 1 mps 487 mmHg 55%
    17:00 -1°C° 0 mm 1 mps 487 mmHg 57%
    18:00 -2°C° 0 mm 1 mps 487 mmHg 53%
    19:00 -3°C° 0 mm 1 mps 487 mmHg 49%
    20:00 -4°C° 0 mm 1 mps 487 mmHg 44%
    21:00 -4°C° 0 mm 1 mps 487 mmHg 43%
    22:00 -4°C° 0 mm 1 mps 488 mmHg 41%
    23:00 -4°C° 0 mm 1 mps 488 mmHg 40%
    Show more